STARLINK-30218 (57604 NORAD) Tracking and Keplerian Element Data

This shows tracking and keplerian element data for the satellite.

Feedback or suggestion? Click here.




ElementValue
Catalog57604
NameSTARLINK-30218
Epoch Orbit376
Epoch Day239.16667824
Epoch Year2023
RAAN77.7379
Inclination43.0007
Eccentricity0.0001334
Argument of Perigee220.6561
Mean Anonmoly34.9382
Mean Motion15.74497372
Decay Rate-0.0087368
L11 57604U 23119C 23239.16667824 -.00873680 00000+0 -64534-2 0 9994
L22 57604 43.0007 77.7379 0001334 220.6561 34.9382 15.74497372 3765



Live tracking and technical data element details for STARLINK-30218 (NORAD 57604). STARLINK-30218 can be tracked NOW for your location showing map with azimuth and elevation plus other details from your city location.







IsCatalogInMostPopularTable: catalog: 57604, numindb: 6
Update: records affected: 1



GetName: 57604 STARLINK-30218

Hit Count: updated at: Tue, 26 Sep 2023 13:54:07 GMT